| time (UTC) | temp C | wind direction | speed KPH | gust KPH | rain 1hr cm | rain 24hr cm | rain mn cm | humidity % | barometer mb |
| 20260505152842 | 3 | 50 | 4.8 | 8.0 | 0.00 | 0.00 | 0.13 | 66 | 1014.6 |
| 20260505150842 | 3 | 84 | 4.8 | 8.0 | 0.00 | 0.00 | 0.13 | 62 | 1014.2 |
| 20260505150202 | 3 | 350 | 3.2 | 6.4 | 0.00 | 0.00 | 0.13 | 66 | 1014.6 |
| 20260505140202 | 2 | 71 | 1.6 | 4.8 | 0.00 | 0.00 | 0.13 | 64 | 1014.6 |
| 20260505130202 | 1 | 161 | 4.8 | 16.1 | 0.00 | 0.00 | 0.13 | 87 | 1013.8 |
| 20260505124842 | 1 | 152 | 8.0 | 20.9 | 0.00 | 0.00 | 0.13 | 85 | 1013.8 |
| 20260505124202 | 1 | 144 | 9.7 | 24.1 | 0.00 | 0.00 | 0.13 | 93 | 1013.8 |
| 20260505123522 | 1 | 140 | 12.9 | 24.1 | 0.00 | 0.00 | 0.13 | 92 | 1013.8 |
| 20260505122842 | 1 | 131 | 9.7 | 17.7 | 0.00 | 0.00 | 0.13 | 92 | 1013.8 |
| 20260505122202 | 1 | 105 | 4.8 | 12.9 | 0.00 | 0.00 | 0.13 | 92 | 1014.2 |
| 20260505121522 | 1 | 95 | 9.7 | 12.9 | 0.00 | 0.00 | 0.13 | 87 | 1014.2 |
| 20260505120842 | 1 | 94 | 8.0 | 12.9 | 0.00 | 0.00 | 0.13 | 89 | 1014.2 |
| 20260505114842 | 1 | 47 | 8.0 | 17.7 | 0.00 | 0.00 | 0.13 | 86 | 1014.2 |
| 20260505114202 | 2 | 9 | 8.0 | 17.7 | 0.00 | 0.00 | 0.13 | 84 | 1014.2 |
| 20260505113522 | 1 | 45 | 3.2 | 9.7 | 0.00 | 0.00 | 0.13 | 90 | 1014.2 |
| 20260505112842 | 1 | 22 | 3.2 | 16.1 | 0.00 | 0.00 | 0.13 | 86 | 1014.2 |
| 20260505112202 | 2 | 8 | 9.7 | 16.1 | 0.00 | 0.00 | 0.10 | 87 | 1014.2 |
| 20260505111522 | 2 | 354 | 3.2 | 9.7 | 0.00 | 0.00 | 0.08 | 86 | 1013.8 |
| 20260505110842 | 3 | 67 | 1.6 | 4.8 | 0.00 | 0.00 | 0.08 | 88 | 1013.8 |
| 20260505110202 | 3 | 4 | 3.2 | 6.4 | 0.00 | 0.00 | 0.08 | 85 | 1013.8 |
| 20260505102202 | 2 | 291 | 6.4 | 9.7 | 0.00 | 0.00 | 0.08 | 91 | 1013.8 |
| 20260505100842 | 2 | 274 | 4.8 | 12.9 | 0.00 | 0.00 | 0.08 | 89 | 1013.8 |
| 20260505100202 | 2 | 278 | 8.0 | 12.9 | 0.00 | 0.00 | 0.08 | 89 | 1013.8 |
| 20260505095522 | 3 | 298 | 8.0 | 12.9 | 0.00 | 0.00 | 0.08 | 88 | 1013.8 |
| 20260505094842 | 3 | 259 | 4.8 | 11.3 | 0.00 | 0.00 | 0.05 | 88 | 1013.8 |
| 20260505094202 | 3 | 312 | 8.0 | 11.3 | 0.00 | 0.00 | 0.05 | 86 | 1013.8 |
| 20260505093522 | 3 | 208 | 4.8 | 12.9 | 0.00 | 0.00 | 0.05 | 88 | 1013.8 |
| 20260505092842 | 3 | 211 | 4.8 | 14.5 | 0.00 | 0.00 | 0.05 | 88 | 1013.8 |
| 20260505091522 | 3 | 199 | 9.7 | 12.9 | 0.00 | 0.00 | 0.05 | 87 | 1013.8 |
| 20260505090842 | 3 | 191 | 6.4 | 12.9 | 0.00 | 0.00 | 0.05 | 87 | 1013.8 |
| 20260505090202 | 3 | 204 | 6.4 | 11.3 | 0.00 | 0.00 | 0.05 | 85 | 1013.8 |
| 20260505085522 | 3 | 203 | 4.8 | 8.0 | 0.00 | 0.00 | 0.05 | 83 | 1013.8 |
| 20260505084202 | 3 | 191 | 3.2 | 6.4 | 0.00 | 0.00 | 0.05 | 81 | 1013.8 |
| 20260505083522 | 3 | 258 | 1.6 | 6.4 | 0.00 | 0.00 | 0.05 | 82 | 1013.8 |
| 20260505081522 | 3 | 236 | 3.2 | 8.0 | 0.00 | 0.00 | 0.05 | 80 | 1013.8 |
| 20260505080841 | 3 | 225 | 1.6 | 3.2 | 0.00 | 0.00 | 0.05 | 79 | 1013.8 |
| 20260505075521 | 3 | 205 | 3.2 | 8.0 | 0.00 | 0.00 | 0.05 | 80 | 1013.8 |
| 20260505074201 | 3 | 126 | 1.6 | 6.4 | 0.00 | 0.00 | 0.05 | 82 | 1013.8 |
| 20260505072841 | 3 | 145 | 3.2 | 9.7 | 0.00 | 0.00 | 0.05 | 82 | 1013.8 |
| 20260505071521 | 3 | 122 | 4.8 | 12.9 | 0.00 | 0.00 | 0.05 | 85 | 1013.4 |
| 20260505070841 | 3 | 114 | 6.4 | 12.9 | 0.00 | 0.00 | 0.05 | 85 | 1013.4 |
| 20260505070201 | 3 | 102 | 8.0 | 12.9 | 0.00 | 0.00 | 0.05 | 84 | 1013.8 |
| 20260505065521 | 3 | 103 | 8.0 | 12.9 | 0.00 | 0.00 | 0.05 | 84 | 1013.8 |
| 20260505064201 | 3 | 106 | 4.8 | 14.5 | 0.00 | 0.00 | 0.05 | 84 | 1013.8 |
| 20260505063521 | 3 | 100 | 11.3 | 14.5 | 0.00 | 0.00 | 0.03 | 80 | 1013.8 |
| 20260505062841 | 3 | 95 | 9.7 | 12.9 | 0.00 | 0.00 | 0.00 | 81 | 1013.8 |
| 20260505061521 | 3 | 84 | 6.4 | 17.7 | 0.00 | 0.00 | 0.00 | 82 | 1013.8 |
| 20260505060841 | 4 | 102 | 11.3 | 17.7 | 0.00 | 0.00 | 0.00 | 80 | 1013.8 |
| 20260505060201 | 4 | 89 | 6.4 | 11.3 | 0.00 | 0.00 | 0.00 | 77 | 1013.8 |
| 20260505055521 | 4 | 73 | 6.4 | 9.7 | 0.00 | 0.00 | 0.00 | 77 | 1013.8 |
| 20260505054841 | 3 | 66 | 6.4 | 14.5 | 0.00 | 0.00 | 0.00 | 78 | 1014.2 |
| 20260505054201 | 3 | 48 | 9.7 | 14.5 | 0.00 | 0.00 | 0.00 | 78 | 1014.2 |
| 20260505053521 | 3 | 42 | 8.0 | 17.7 | 0.00 | 0.00 | 0.00 | 77 | 1014.2 |
| 20260505052841 | 4 | 39 | 9.7 | 20.9 | 0.00 | 0.00 | 0.00 | 76 | 1014.2 |
| 20260505052201 | 4 | 34 | 11.3 | 17.7 | 0.00 | 0.00 | 0.00 | 76 | 1014.2 |
| 20260505051521 | 4 | 48 | 8.0 | 20.9 | 0.00 | 0.00 | 0.00 | 75 | 1014.2 |
| 20260505050841 | 4 | 43 | 8.0 | 20.9 | 0.00 | 0.00 | 0.00 | 74 | 1013.8 |
| 20260505041521 | 6 | 60 | 9.7 | 17.7 | 0.00 | 0.00 | 0.00 | 54 | 1013.8 |
| 20260505040841 | 6 | 51 | 9.7 | 17.7 | 0.00 | 0.00 | 0.00 | 54 | 1013.8 |
| 20260505040201 | 6 | 62 | 11.3 | 20.9 | 0.00 | 0.00 | 0.00 | 53 | 1013.8 |
| 20260505035521 | 7 | 48 | 11.3 | 20.9 | 0.00 | 0.00 | 0.00 | 52 | 1013.8 |
| 20260505034841 | 7 | 58 | 9.7 | 22.5 | 0.00 | 0.00 | 0.00 | 50 | 1013.8 |
| 20260505034201 | 7 | 43 | 14.5 | 22.5 | 0.00 | 0.00 | 0.00 | 49 | 1013.4 |
| 20260505033521 | 7 | 42 | 8.0 | 17.7 | 0.00 | 0.00 | 0.00 | 50 | 1013.4 |
| 20260505032841 | 7 | 45 | 9.7 | 19.3 | 0.00 | 0.00 | 0.00 | 49 | 1013.4 |
| 20260505032201 | 7 | 45 | 9.7 | 25.7 | 0.00 | 0.00 | 0.00 | 49 | 1013.4 |
| 20260505031521 | 7 | 41 | 17.7 | 25.7 | 0.00 | 0.00 | 0.00 | 48 | 1013.0 |
| 20260505030841 | 7 | 41 | 11.3 | 25.7 | 0.00 | 0.00 | 0.00 | 49 | 1013.0 |
| 20260505025521 | 7 | 40 | 16.1 | 25.7 | 0.00 | 0.00 | 0.00 | 48 | 1012.6 |
| 20260505024201 | 7 | 41 | 9.7 | 27.4 | 0.00 | 0.00 | 0.00 | 47 | 1012.6 |
| 20260505023521 | 7 | 32 | 11.3 | 27.4 | 0.00 | 0.00 | 0.00 | 47 | 1012.6 |
| 20260505022841 | 7 | 38 | 9.7 | 24.1 | 0.00 | 0.00 | 0.00 | 47 | 1012.6 |
| 20260505022201 | 7 | 39 | 12.9 | 22.5 | 0.00 | 0.00 | 0.00 | 46 | 1012.2 |
| 20260505021521 | 8 | 46 | 9.7 | 30.6 | 0.00 | 0.00 | 0.00 | 46 | 1012.2 |
| 20260505020841 | 8 | 37 | 9.7 | 29.0 | 0.00 | 0.00 | 0.00 | 46 | 1011.8 |
| 20260505020201 | 8 | 36 | 14.5 | 29.0 | 0.00 | 0.00 | 0.00 | 46 | 1011.8 |
| 20260505015521 | 8 | 34 | 16.1 | 27.4 | 0.00 | 0.00 | 0.00 | 46 | 1011.8 |
| 20260505014841 | 8 | 41 | 16.1 | 27.4 | 0.00 | 0.00 | 0.00 | 45 | 1011.8 |
| 20260505014201 | 8 | 41 | 14.5 | 27.4 | 0.00 | 0.00 | 0.00 | 45 | 1011.8 |
| 20260505013521 | 8 | 45 | 14.5 | 29.0 | 0.00 | 0.00 | 0.00 | 44 | 1011.4 |
| 20260505012841 | 9 | 48 | 12.9 | 29.0 | 0.00 | 0.00 | 0.00 | 43 | 1011.4 |
| 20260505012201 | 10 | 40 | 14.5 | 29.0 | 0.00 | 0.00 | 0.00 | 42 | 1011.0 |
| 20260505011521 | 10 | 40 | 12.9 | 27.4 | 0.00 | 0.00 | 0.00 | 42 | 1011.0 |
| 20260505010841 | 10 | 37 | 12.9 | 29.0 | 0.00 | 0.00 | 0.00 | 43 | 1011.0 |
| 20260505010201 | 11 | 35 | 12.9 | 27.4 | 0.00 | 0.00 | 0.00 | 42 | 1011.0 |
| 20260505005521 | 11 | 38 | 9.7 | 27.4 | 0.00 | 0.00 | 0.00 | 42 | 1010.6 |
| 20260505004841 | 11 | 43 | 11.3 | 27.4 | 0.00 | 0.00 | 0.00 | 42 | 1010.6 |
| 20260505004201 | 11 | 18 | 14.5 | 29.0 | 0.00 | 0.00 | 0.00 | 40 | 1010.6 |
| 20260505003521 | 11 | 33 | 11.3 | 29.0 | 0.00 | 0.00 | 0.00 | 41 | 1010.3 |
| 20260505002841 | 11 | 34 | 11.3 | 27.4 | 0.00 | 0.00 | 0.00 | 41 | 1010.3 |
| 20260505002201 | 12 | 29 | 11.3 | 25.7 | 0.00 | 0.00 | 0.00 | 40 | 1010.3 |
| 20260505000201 | 13 | 49 | 8.0 | 19.3 | 0.00 | 0.00 | 0.00 | 38 | 1010.3 |
| 20260504235521 | 13 | 26 | 9.7 | 22.5 | 0.00 | 0.00 | 0.00 | 36 | 1010.3 |
| 20260504234841 | 13 | 39 | 11.3 | 22.5 | 0.00 | 0.00 | 0.00 | 36 | 1010.3 |
| 20260504234201 | 13 | 359 | 12.9 | 27.4 | 0.00 | 0.00 | 0.00 | 36 | 1010.3 |
| 20260504233521 | 13 | 14 | 12.9 | 27.4 | 0.00 | 0.00 | 0.00 | 37 | 1010.3 |
| 20260504232841 | 13 | 33 | 8.0 | 29.0 | 0.00 | 0.00 | 0.00 | 36 | 1009.9 |
| 20260504231521 | 13 | 9 | 9.7 | 22.5 | 0.00 | 0.00 | 0.00 | 35 | 1009.9 |
| 20260504230841 | 13 | 6 | 12.9 | 27.4 | 0.00 | 0.00 | 0.00 | 35 | 1009.9 |
| 20260504230201 | 13 | 338 | 12.9 | 29.0 | 0.00 | 0.00 | 0.00 | 36 | 1009.9 |
| 20260504225521 | 14 | 9 | 14.5 | 27.4 | 0.00 | 0.00 | 0.00 | 34 | 1009.5 |
| 20260504224841 | 15 | 32 | 11.3 | 25.7 | 0.00 | 0.00 | 0.00 | 33 | 1009.5 |
| 20260504222841 | 15 | 10 | 9.7 | 22.5 | 0.00 | 0.00 | 0.00 | 34 | 1009.5 |
| 20260504222201 | 14 | 31 | 11.3 | 25.7 | 0.00 | 0.00 | 0.00 | 35 | 1009.1 |
| 20260504221521 | 14 | 41 | 11.3 | 25.7 | 0.00 | 0.00 | 0.00 | 34 | 1009.5 |
| 20260504220841 | 15 | 1 | 11.3 | 22.5 | 0.00 | 0.00 | 0.00 | 34 | 1009.1 |
| 20260504220201 | 15 | 31 | 11.3 | 25.7 | 0.00 | 0.00 | 0.00 | 34 | 1009.5 |
| 20260504215521 | 15 | 29 | 11.3 | 20.9 | 0.00 | 0.00 | 0.00 | 33 | 1009.1 |
| 20260504214841 | 14 | 356 | 8.0 | 25.7 | 0.00 | 0.00 | 0.00 | 35 | 1009.5 |
| 20260504214201 | 14 | 330 | 14.5 | 27.4 | 0.00 | 0.00 | 0.00 | 35 | 1009.5 |
| 20260504213521 | 14 | 354 | 8.0 | 25.7 | 0.00 | 0.00 | 0.00 | 35 | 1009.9 |
| 20260504212841 | 14 | 46 | 9.7 | 24.1 | 0.00 | 0.00 | 0.00 | 35 | 1009.9 |
| 20260504212201 | 14 | 333 | 12.9 | 25.7 | 0.00 | 0.00 | 0.00 | 35 | 1009.9 |
| 20260504211521 | 13 | 42 | 12.9 | 25.7 | 0.00 | 0.00 | 0.00 | 36 | 1009.9 |
| 20260504210841 | 15 | 25 | 11.3 | 20.9 | 0.00 | 0.00 | 0.00 | 35 | 1009.9 |
| 20260504210201 | 14 | 329 | 6.4 | 16.1 | 0.00 | 0.00 | 0.00 | 34 | 1009.9 |
| 20260504205521 | 14 | 358 | 6.4 | 25.7 | 0.00 | 0.00 | 0.00 | 34 | 1009.9 |
| 20260504204841 | 15 | 356 | 12.9 | 25.7 | 0.00 | 0.00 | 0.00 | 34 | 1010.3 |
| 20260504203521 | 14 | 291 | 6.4 | 20.9 | 0.00 | 0.00 | 0.00 | 34 | 1010.3 |
| 20260504202841 | 14 | 334 | 8.0 | 22.5 | 0.00 | 0.00 | 0.00 | 34 | 1010.6 |
| 20260504202201 | 15 | 48 | 6.4 | 22.5 | 0.00 | 0.00 | 0.00 | 33 | 1010.6 |
| 20260504201521 | 13 | 316 | 11.3 | 22.5 | 0.00 | 0.00 | 0.00 | 35 | 1010.6 |
| 20260504200841 | 13 | 35 | 9.7 | 20.9 | 0.00 | 0.00 | 0.00 | 35 | 1010.6 |
| 20260504195521 | 13 | 64 | 9.7 | 24.1 | 0.00 | 0.00 | 0.00 | 36 | 1010.6 |
| 20260504194202 | 13 | 43 | 9.7 | 22.5 | 0.00 | 0.00 | 0.00 | 35 | 1011.0 |
| 20260504192841 | 13 | 41 | 9.7 | 25.7 | 0.00 | 0.00 | 0.00 | 35 | 1011.0 |
| 20260504190841 | 13 | 34 | 12.9 | 19.3 | 0.00 | 0.00 | 0.00 | 34 | 1011.0 |
| 20260504190201 | 13 | 77 | 12.9 | 19.3 | 0.00 | 0.00 | 0.00 | 35 | 1011.0 |
| 20260504185521 | 13 | 125 | 8.0 | 19.3 | 0.00 | 0.00 | 0.00 | 35 | 1011.0 |
| 20260504184841 | 12 | 85 | 9.7 | 24.1 | 0.00 | 0.00 | 0.00 | 36 | 1011.8 |
| 20260504184201 | 13 | 14 | 11.3 | 24.1 | 0.00 | 0.00 | 0.00 | 35 | 1011.4 |
| 20260504183521 | 13 | 352 | 4.8 | 20.9 | 0.00 | 0.00 | 0.00 | 36 | 1011.8 |
| 20260504182201 | 12 | 48 | 9.7 | 17.7 | 0.00 | 0.00 | 0.00 | 36 | 1011.8 |
| 20260504181521 | 13 | 32 | 8.0 | 19.3 | 0.00 | 0.00 | 0.00 | 37 | 1011.8 |
| 20260504180841 | 12 | 87 | 11.3 | 22.5 | 0.00 | 0.00 | 0.00 | 38 | 1011.8 |
| 20260504180201 | 12 | 81 | 14.5 | 22.5 | 0.00 | 0.00 | 0.00 | 39 | 1011.8 |
| 20260504175521 | 11 | 65 | 9.7 | 20.9 | 0.00 | 0.00 | 0.00 | 39 | 1012.2 |
| 20260504174841 | 12 | 44 | 9.7 | 22.5 | 0.00 | 0.00 | 0.00 | 38 | 1012.2 |
| 20260504174201 | 11 | 47 | 14.5 | 25.7 | 0.00 | 0.00 | 0.00 | 39 | 1012.2 |
| 20260504172841 | 11 | 102 | 1.6 | 22.5 | 0.00 | 0.00 | 0.00 | 40 | 1012.2 |
| 20260504171521 | 11 | 78 | 12.9 | 24.1 | 0.00 | 0.00 | 0.00 | 40 | 1012.6 |
| 20260504170841 | 11 | 19 | 6.4 | 17.7 | 0.00 | 0.00 | 0.00 | 40 | 1012.6 |
| 20260504170201 | 11 | 33 | 9.7 | 17.7 | 0.00 | 0.00 | 0.00 | 40 | 1012.6 |
| 20260504160201 | 10 | 39 | 11.3 | 25.7 | 0.00 | 0.00 | 0.00 | 44 | 1012.6 |